Regional Weather Roundup
Issued by NWS Wakefield, VA

Home | Current Version | Previous Version | Graphics & Text | Print | Product List | Glossary On
Versions: 1 2 3 4 5 6 7 8 9 10 11 12 13 14 15 16 17 18 19 20 21 22 23 24 25 26 27
000
ASUS41 KAKQ 230015
RWRAKQ

REGIONAL WEATHER ROUNDUP
NATIONAL WEATHER SERVICE WAKEFIELD VA
800 PM EDT FRI SEP 22 2017

Note: "fair" indicates few or no clouds below 12,000 feet with no
significant weather and/or obstructions to visibility. * = Denotes
station may not report precipitation (e.g., rain,snow,etc.),
thunder or fog.

VAZ042-051-052>054-056-230100-
NORTHERN VIRGINIA

CITY           SKY/WX    TMP DP  RH WIND       PRES   REMARKS
WASH NATIONAL  CLOUDY    80  67  64 N3        30.00R
DULLES         MOCLDY    73  66  78 CALM      30.00R
FORT BELVOIR   MOCLDY    70  67  90 CALM      30.00R
QUANTICO       CLOUDY    73  70  90 NW5       30.00R
FREDERICKSBRG* CLOUDY    73  67  84 CALM      29.99S
STAFFORD*      CLOUDY    67  67 100 CALM      30.04R
WARRENTON      CLOUDY    67  61  83 CALM      30.00S
CULPEPER*      PTCLDY    69  68  96 CALM      30.01S
MANASSAS*      CLOUDY    70  66  87 CALM      30.00S
LEESBURG*      CLOUDY    73  70  88 CALM      30.02R
WINCHESTER     MOCLDY    70  63  78 CALM      30.03R
FRONT ROYAL*   CLOUDY    72  64  78 CALM      30.02S
LURAY*         CLOUDY    72  63  73 CALM      30.04R
$$

VAZ048-049-060>072-079>083-230100-
CENTRAL AND SOUTH CENTRAL VIRGINIA

CITY           SKY/WX    TMP DP  RH WIND       PRES   REMARKS
RICHMOND       MOCLDY    74  66  76 CALM      29.99F
CHESTERFIELD*  NOT AVBL
PETERSBURG*    CLEAR     69  69 100 CALM      30.01R
HANOVER        PTCLDY    71  69  93 CALM      30.01S
TAPPAHANNOCK*  PTCLDY    72  59  64 CALM      30.00S
QUINTON*       FAIR      71  71 100 CALM      29.99R
CHARLOTTSVILLE MOCLDY    77  68  73 CALM      30.02R
GORDONSVILLE*  CLOUDY    72  69  91 CALM      30.01S
ORANGE*        MOCLDY    72  66  83 CALM      30.01S
LOUISA*        CLOUDY    70  66  88 CALM      30.01S
BUMPASS*       FAIR      71  71 100 CALM      30.01S
FARMVILLE*     PTCLDY    74  69  83 CALM      30.00R
CREWE*         FAIR      71  71 100 CALM      30.02R
FORT PICKETT*  FAIR      71  71 100 CALM      30.02R
CHASE CITY*    FAIR      73  64  73 CALM      30.02R
CLARKSVILLE*   FAIR      75  63  64 CALM      30.01R
SOUTH HILL*    PTCLDY    72  69  90 CALM      30.07R
LAWRENCEVILLE* FAIR      73  69  89 CALM      30.01R
EMPORIA*       CLOUDY    72  70  94 CALM      30.02R
$$

VAZ088>098-230100-
SOUTHEAST VIRGINIA

CITY           SKY/WX    TMP DP  RH WIND       PRES   REMARKS
NORFOLK        CLEAR     72  65  78 CALM      29.99R
VIRGINIA BEACH PTCLDY    68  61  78 CALM      29.99R
NORFOLK NAVAL  PTCLDY    72  65  78 CALM      30.00R
WEST POINT*    PTCLDY    70  64  83 CALM      30.01R
SALUDA*        FAIR      72  67  85 CALM      29.99R
NEWPORT NEWS   CLEAR     70  67  90 CALM      29.99R
LANGLEY AFB    CLEAR     71  68  90 SW5       29.98S
FORT EUSTIS    CLEAR     71  66  82 CALM      29.97R
WILLIAMSBURG*  CLEAR     73  70  88 CALM      30.00R
HR EXEC AP*    FAIR      66  65  96 CALM      30.00R FOG
FRANKLIN*      CLEAR     67  65  91 CALM      30.01R
US460-WAKEFLD  PTCLDY    70  69  97 CALM      30.00R
$$

VAZ020-022-025-037-045-230100-
WEST CENTRAL AND SOUTHWEST VIRGINIA

CITY           SKY/WX    TMP DP  RH WIND       PRES   REMARKS
STAUNTON*      PTCLDY    71  64  77 CALM      30.07R
WAYNESBORO*    CLOUDY    71  66  85 W5        30.06S
HOT SPRINGS VA PTCLDY    70  51  50 CALM      30.20R HAZE
LYNCHBURG      CLOUDY    72  64  76 CALM      30.03S
DANVILLE       PTCLDY    71  67  87 E3        30.02R
SOUTH BOSTON*  FAIR      74  61  64 CALM      30.02R
MARTINSVILLE   PTCLDY    71  69  92 CALM      30.07R
ROANOKE        MOCLDY    78  62  57 CALM      30.06S
BLACKSBURG     CLEAR     71  65  81 CALM      30.13S
DUBLIN*        CLEAR     74  65  74 CALM      30.11S
MARION*        MOCLDY    73  63  71 CALM      30.15R
HILLSVILLE*    CLEAR     69  62  76 CALM      30.12S
RICHLANDS*     FAIR      73  59  61 N3        30.14S
WISE*          CLEAR     72  55  56 N3        30.15S
ABINGDON*      PTCLDY    75  64  67 CALM      30.10R
$$

MDZ021>025-VAZ099-100-230100-
SOUTHERN MARYLAND AND THE DELMARVA PENINSULA

CITY           SKY/WX    TMP DP  RH WIND       PRES   REMARKS
PATUXENT RIVER MOCLDY    73  68  84 NW5       29.99R
BAY BRIDGE APT CLOUDY    73  64  73 CALM      29.98S
LEONARDTOWN    CLOUDY    70  64  83 CALM      30.01R
DOVER          PTCLDY    73  73 100 W7        29.97R
GEORGETOWN     PTCLDY    72  63  73 CALM      29.97S
EASTON         CLEAR     72  64  78 CALM      30.02S
CAMBRIDGE      CLEAR     68  64  88 CALM      29.98R
SALISBURY      PTCLDY    68  67  96 CALM      29.98R
OCEAN CITY     PTCLDY    67  66  97 CALM      29.97S
WALLOPS ISLAND MOCLDY    69  67  93 CALM      29.97S
ACCOMACK*      PTCLDY    69  67  94 CALM      29.98S
$$

NCZ012>017-030>032-230100-
NORTH CENTRAL AND EASTERN NORTH CAROLINA

CITY           SKY/WX    TMP DP  RH WIND       PRES   REMARKS
ROANOKE RAPIDS FAIR      72  70  94 CALM      30.01R
RALEIGH        PTCLDY    78  66  66 CALM      30.01R
ELIZABETH CITY CLEAR     73  71  93 SE3       30.00R
AHOSKIE*       CLOUDY    71  70  95 CALM      30.01R
EDENTON*       PTCLDY    77  72  84 CALM      30.01R
CURRITUCK*     CLEAR     73  69  89 CALM      30.00S
KILL DEVIL HLS CLEAR     70  67  91 CALM      29.99S
MANTEO         PTCLDY    73  67  79 CALM      30.00S
CAPE HATTERAS  CLEAR     75  71  87 SW3       30.00R
TARBORO*       NOT AVBL
GOLDSBORO      CLEAR     75  74  97 CALM      29.98S
WASHINGTON     CLOUDY    77  67  71 CALM      29.99S
GREENVILLE     CLOUDY    75  72  88 CALM      30.01S
NEW BERN       CLEAR     76  72  87 S3        30.00S
WILMINGTON     CLOUDY    76  71  85 CALM      30.00S
$$

VAZ048-230100-
ELSEWHERE

CITY           SKY/WX    TMP DP  RH WIND       PRES   REMARKS
HARRISBURG PA  PTCLDY    71  59  65 N3        30.00R
BALTIMORE      CLOUDY    73  66  78 CALM      29.99R
ANNAPOLIS      CLOUDY    74  70  87 CALM      29.98R
ANDREWS AFB    CLOUDY    69  64  83 S3        29.99R
PHILADELPHIA   MOCLDY    78  56  46 NW7       29.96R
HENDERSON NC   CLEAR     76  60  58 CALM      30.02R
GREENSBORO     PTCLDY    79  65  62 CALM      30.03R
ROCKY MOUNT    CLOUDY    74  69  85 CALM      30.00R
$$

VAZ100-230100-
MARINE

STATION/POSITION TIME  TEMP    WIND        PRES    WAVE   SWELL
                       AIR SEA DIR/SP/G            HT/PER HT/PER
                 (UTC) (F)     (DEG/KT/KT) (MB)    (FT/S) (FT/S)
BRANDYWINE LGT   2342   75     300/ 11/ 14 1014.7R
CAPE MAY NJ      2348   74 74  320/  3/  5 1013.8R
LEWES DE         2342   74 74  290/  8/ 10 1014.2S
15NM E FENWICK I 2250   74 71  310/ 10/ 10 1014.6    6/10   7/10
OCEAN-CITY-INLET 2342   74 75  290/  3/  4 1015.0S
WACHAPREAGUE VA  2342   70 77  250/  1/  2 1015.2R
THOMAS POINT MD  0000   76 76  300/  5/  5   N/A
GOOSES REEF MD   0000   77 76  350/  4/  4 1015.9    1
COVE POINT MD    2342   76     320/  3/  5 1016.0R
SOLOMONS ISLAND  2342   75 76  340/  2/  3 1014.9R
BISHOPS HEAD MD  2342   75 78  310/  4/  5 1015.5R
PINEY POINT MD   2342          330/  5/  6   N/A
POTOMAC MD       0000   77 76  320/  6/  6 1014.6    1
CAMBRIDGE MD     2342   72 76              1016.0S
LEWISETTA VA     2342   76 77  280/  4/  5 1015.3R
RAPPAHANNOCK LGT 2342          360/  2/  2 1015.8S
STINGRAY PT      0000   76 76   CALM  /  2 1015.7    0
YORK RVR RNG VA  2342   77     280/  4/  5 1015.7R
YORKTOWN VA      2342   75 77  250/  3/  4 1015.0R
JAMESTOWN VA     0000      78  310/  2/  2   N/A     0
DOMINION TERM VA 2342   78     310/  3/  4 1015.7R
KIPTOPEKE VA     2342      76   CALM  /  1   N/A
CHES BAY BRIDGE  2342   76 76  190/  2/  3 1015.4R
CAPE HENRY VA    2342   74     230/  2/  2   N/A
WILLOUBY STN VA  2342   77     300/  4/  5 1015.6R
S CRANEY ISL VA  2342   76      CALM  /  1 1015.4R
1ST LANDING BUOY 0000   75 76              1015.3    2/ 5
64NM E OF VA BCH 2350   70 71  270/  2/  4 1016.0R   9/11   8/11
DUCK PIER NC     2342   75 77  100/  3/  3 1015.4R
44100 DUCK FRF   2305      75                N/A     6/11   5/11
OREGON INLET NC  2342   75 78   80/  1/  2 1015.6F
HATTERAS NC      2342   78 79  190/  2/  3 1015.6R
DIAMOND SHLS NC  2350   78 78  260/  4/  6 1015.7R   6/12   7/12
CAPE LOOKOUT NC  0000   78     190/  4/  4 1015.7R
$$




USA.gov is the U.S. government's official web portal to all federal, state and local government web resources and services.